When you browse on this site, cookies collect data to enhance your experience and personalize the content and advertising you see.
Visit our Privacy Policy to learn more. By continuing to use the site, you agree to this use of cookies and data.

Stündliche Wetter Atotonilco el Grande

Heute, 5 August, Mittwoch

Zeit Temperatur Niederschläge Wind Luftdruck Luftfeuchtigkeit
00:00 +15°C° 0 mm 1 m/S 594 mmHg 95%
01:00 +13°C° 0 mm 0 m/S 594 mmHg 94%
02:00 +13°C° 0 mm 0 m/S 593 mmHg 93%
03:00 +13°C° 0 mm 0 m/S 593 mmHg 94%
04:00 +12°C° 0 mm 0 m/S 593 mmHg 94%
05:00 +12°C° 0 mm 0 m/S 593 mmHg 94%
06:00 +14°C° 0 mm 0 m/S 594 mmHg 86%
07:00 +16°C° 0 mm 0 m/S 595 mmHg 78%
08:00 +20°C° 0 mm 1 m/S 596 mmHg 70%
09:00 +20°C° 0 mm 2 m/S 597 mmHg 64%
10:00 +23°C° 0 mm 2 m/S 597 mmHg 59%
11:00 +24°C° 0 mm 3 m/S 597 mmHg 53%
12:00 +23°C° 0.1 mm 4 m/S 597 mmHg 58%
13:00 +22°C° 0.1 mm 4 m/S 596 mmHg 64%
14:00 +22°C° 0.1 mm 5 m/S 595 mmHg 69%
15:00 +21°C° 0.1 mm 4 m/S 595 mmHg 72%
16:00 +20°C° 0.1 mm 4 m/S 594 mmHg 75%
17:00 +19°C° 0.1 mm 3 m/S 594 mmHg 78%
18:00 +18°C° 0 mm 3 m/S 594 mmHg 84%
19:00 +17°C° 0 mm 2 m/S 594 mmHg 89%
20:00 +15°C° 0 mm 1 m/S 594 mmHg 95%
21:00 +15°C° 0 mm 1 m/S 594 mmHg 94%
22:00 +15°C° 0 mm 1 m/S 594 mmHg 94%
23:00 +15°C° 0 mm 1 m/S 594 mmHg 93%

Morgen, 6 August, Donnerstag

Zeit Temperatur Niederschläge Wind Luftdruck Luftfeuchtigkeit
00:00 +15°C° 0 mm 1 m/S 594 mmHg 93%
01:00 +15°C° 0 mm 1 m/S 593 mmHg 92%
02:00 +14°C° 0 mm 0 m/S 593 mmHg 91%
03:00 +15°C° 0 mm 1 m/S 593 mmHg 91%
04:00 +15°C° 0 mm 1 m/S 593 mmHg 90%
05:00 +15°C° 0 mm 1 m/S 593 mmHg 89%
06:00 +16°C° 0 mm 1 m/S 594 mmHg 85%
07:00 +18°C° 0 mm 1 m/S 595 mmHg 81%
08:00 +19°C° 0 mm 1 m/S 595 mmHg 76%
09:00 +20°C° 0 mm 1 m/S 595 mmHg 72%
10:00 +20°C° 0 mm 2 m/S 596 mmHg 68%
11:00 +21°C° 0 mm 2 m/S 596 mmHg 63%
12:00 +22°C° 0 mm 3 m/S 596 mmHg 62%
13:00 +22°C° 0 mm 4 m/S 596 mmHg 60%
14:00 +23°C° 0 mm 5 m/S 595 mmHg 58%
15:00 +22°C° 0.1 mm 4 m/S 595 mmHg 64%
16:00 +20°C° 0.1 mm 4 m/S 594 mmHg 71%
17:00 +19°C° 0.1 mm 3 m/S 593 mmHg 77%
18:00 +18°C° 0 mm 3 m/S 593 mmHg 83%
19:00 +16°C° 0 mm 2 m/S 593 mmHg 90%
20:00 +15°C° 0 mm 1 m/S 594 mmHg 96%
21:00 +15°C° 0.1 mm 1 m/S 594 mmHg 95%
22:00 +15°C° 0.1 mm 1 m/S 594 mmHg 94%
23:00 +15°C° 0.1 mm 1 m/S 594 mmHg 94%

übermorgen, 7 August, Freitag

Zeit Temperatur Niederschläge Wind Luftdruck Luftfeuchtigkeit
00:00 +15°C° 0.1 mm 1 m/S 594 mmHg 94%
01:00 +15°C° 0.1 mm 1 m/S 594 mmHg 94%
02:00 +15°C° 0.1 mm 1 m/S 593 mmHg 94%
03:00 +15°C° 0 mm 1 m/S 593 mmHg 94%
04:00 +15°C° 0 mm 1 m/S 593 mmHg 94%
05:00 +14°C° 0 mm 1 m/S 593 mmHg 95%
06:00 +16°C° 0 mm 1 m/S 594 mmHg 89%
07:00 +18°C° 0 mm 1 m/S 595 mmHg 84%
08:00 +19°C° 0 mm 1 m/S 595 mmHg 78%
09:00 +19°C° 0.6 mm 2 m/S 596 mmHg 75%
10:00 +20°C° 0.6 mm 2 m/S 596 mmHg 72%
11:00 +21°C° 0.6 mm 3 m/S 596 mmHg 69%
12:00 +22°C° 0.3 mm 3 m/S 596 mmHg 67%
13:00 +22°C° 0.3 mm 4 m/S 595 mmHg 65%
14:00 +22°C° 0.3 mm 5 m/S 595 mmHg 63%
15:00 +21°C° 0.1 mm 4 m/S 595 mmHg 68%
16:00 +20°C° 0.1 mm 4 m/S 594 mmHg 74%
17:00 +19°C° 0.1 mm 4 m/S 594 mmHg 79%
18:00 +18°C° 0.1 mm 3 m/S 594 mmHg 85%
19:00 +17°C° 0.1 mm 2 m/S 594 mmHg 90%
20:00 +16°C° 0.1 mm 2 m/S 594 mmHg 96%
21:00 +16°C° 0.1 mm 2 m/S 595 mmHg 95%
22:00 +16°C° 0.1 mm 2 m/S 595 mmHg 94%
23:00 +15°C° 0.1 mm 1 m/S 595 mmHg 93%

8 August, Samstag

Zeit Temperatur Niederschläge Wind Luftdruck Luftfeuchtigkeit
00:00 +15°C° 0 mm 1 m/S 594 mmHg 93%
01:00 +14°C° 0 mm 1 m/S 594 mmHg 93%
02:00 +14°C° 0 mm 1 m/S 593 mmHg 93%
03:00 +13°C° 0 mm 1 m/S 593 mmHg 93%
04:00 +13°C° 0 mm 1 m/S 593 mmHg 94%
05:00 +12°C° 0 mm 0 m/S 593 mmHg 94%
06:00 +14°C° 0 mm 1 m/S 594 mmHg 86%
07:00 +16°C° 0 mm 1 m/S 595 mmHg 79%
08:00 +17°C° 0 mm 2 m/S 596 mmHg 71%
09:00 +19°C° 0 mm 3 m/S 597 mmHg 65%
10:00 +21°C° 0 mm 4 m/S 597 mmHg 59%
11:00 +22°C° 0 mm 5 m/S 597 mmHg 53%
12:00 +22°C° 0 mm 5 m/S 597 mmHg 55%
13:00 +22°C° 0 mm 6 m/S 596 mmHg 57%
14:00 +22°C° 0 mm 6 m/S 596 mmHg 60%
15:00 +20°C° 0 mm 6 m/S 595 mmHg 64%
16:00 +19°C° 0 mm 5 m/S 595 mmHg 68%
17:00 +18°C° 0 mm 4 m/S 594 mmHg 73%
18:00 +17°C° 0.1 mm 3 m/S 595 mmHg 79%
19:00 +16°C° 0.1 mm 3 m/S 595 mmHg 86%
20:00 +15°C° 0.1 mm 2 m/S 595 mmHg 92%
21:00 +15°C° 0 mm 2 m/S 595 mmHg 92%
22:00 +14°C° 0 mm 1 m/S 595 mmHg 93%
23:00 +14°C° 0 mm 1 m/S 595 mmHg 93%

9 August, Sonntag

Zeit Temperatur Niederschläge Wind Luftdruck Luftfeuchtigkeit
00:00 +13°C° 0 mm 1 m/S 594 mmHg 93%
01:00 +13°C° 0 mm 1 m/S 594 mmHg 92%
02:00 +12°C° 0 mm 1 m/S 593 mmHg 92%
03:00 +12°C° 0 mm 1 m/S 593 mmHg 91%
04:00 +12°C° 0 mm 1 m/S 593 mmHg 90%
05:00 +10°C° 0 mm 0 m/S 593 mmHg 90%
06:00 +13°C° 0 mm 1 m/S 594 mmHg 82%
07:00 +15°C° 0 mm 1 m/S 595 mmHg 75%
08:00 +16°C° 0 mm 1 m/S 596 mmHg 68%
09:00 +18°C° 0 mm 2 m/S 596 mmHg 65%
10:00 +19°C° 0 mm 3 m/S 597 mmHg 61%
11:00 +21°C° 0 mm 3 m/S 597 mmHg 58%
12:00 +20°C° 0.1 mm 3 m/S 596 mmHg 63%
13:00 +20°C° 0.1 mm 3 m/S 595 mmHg 69%
14:00 +19°C° 0.1 mm 4 m/S 595 mmHg 74%
15:00 +19°C° 0.2 mm 3 m/S 594 mmHg 78%
16:00 +18°C° 0.2 mm 3 m/S 594 mmHg 81%
17:00 +17°C° 0.2 mm 3 m/S 594 mmHg 84%
18:00 +16°C° 0 mm 2 m/S 594 mmHg 88%
19:00 +15°C° 0 mm 2 m/S 594 mmHg 91%
20:00 +15°C° 0 mm 1 m/S 594 mmHg 94%
21:00 +14°C° 0 mm 1 m/S 594 mmHg 94%
22:00 +14°C° 0 mm 1 m/S 595 mmHg 94%
23:00 +14°C° 0 mm 1 m/S 595 mmHg 94%

10 August, Montag

Zeit Temperatur Niederschläge Wind Luftdruck Luftfeuchtigkeit
00:00 +14°C° 0 mm 1 m/S 594 mmHg 94%
01:00 +14°C° 0 mm 1 m/S 594 mmHg 94%
02:00 +14°C° 0 mm 1 m/S 593 mmHg 94%
03:00 +13°C° 0 mm 1 m/S 593 mmHg 94%
04:00 +12°C° 0 mm 0 m/S 593 mmHg 94%
05:00 +11°C° 0 mm 0 m/S 593 mmHg 94%
06:00 +14°C° 0 mm 1 m/S 594 mmHg 87%
07:00 +15°C° 0 mm 1 m/S 595 mmHg 80%
08:00 +18°C° 0 mm 1 m/S 596 mmHg 74%
09:00 +19°C° 0 mm 2 m/S 596 mmHg 67%
10:00 +20°C° 0 mm 2 m/S 597 mmHg 60%
11:00 +22°C° 0 mm 3 m/S 597 mmHg 53%
12:00 +22°C° 0.1 mm 4 m/S 596 mmHg 56%
13:00 +22°C° 0.1 mm 5 m/S 596 mmHg 60%
14:00 +22°C° 0.1 mm 5 m/S 595 mmHg 63%
15:00 +20°C° 0.2 mm 5 m/S 594 mmHg 70%
16:00 +19°C° 0.2 mm 4 m/S 594 mmHg 77%
17:00 +17°C° 0.2 mm 3 m/S 593 mmHg 85%
18:00 +17°C° 0.1 mm 3 m/S 593 mmHg 87%
19:00 +16°C° 0.1 mm 2 m/S 594 mmHg 90%
20:00 +16°C° 0.1 mm 2 m/S 594 mmHg 93%
21:00 +16°C° 0.1 mm 2 m/S 594 mmHg 93%
22:00 +15°C° 0.1 mm 2 m/S 594 mmHg 93%
23:00 +15°C° 0.1 mm 1 m/S 594 mmHg 94%
Mehr zeigen